Volver al catálogo

PRAETORIAN SDA_508

ActivoMilitarPO
NORAD 100066·PAYLOAD·🇺🇸 United States

Lanzado Jul 16, 2026 desde Vandenberg Space Force Base

Loading…

Próximos Pases (próximas 24 horas)

TLE

ActualizadoSource: Space-Track

Época: Sep 14, 2026, 01:01 UTC

1 A0066U 26163H   26257.04304360  .00000179  00000-0  14574-3 0  9993
2 A0066  81.4755 255.8413 0014601  57.0623 303.1937 13.85528093  8207

Sigue PRAETORIAN SDA_508 en tiempo real con AllMySat

Download on the App Store